Flag for Canada Weather past 2 weeks in Camrose, Alberta, Canada

Now
63 °F

Scattered clouds.


Feels Like: 63 °F
Forecast: 48 / 63 °F
Wind: 7 mph from Northwest

Location: Edmonton International

Current Time: Aug 20, 2014 at 6:33:10 PM

Latest Report: Aug 20, 2014 at 6:00 PM


Visibility: 15 mi

Pressure: 29.97 "Hg

Humidity: 52%

Dew point: 45 °F

Location of CamroseLocation

Historic Weather in Camrose — Graph

°F

Camrose temperature yesterday

Maximum temperature yesterday: 68 °F (at 12:00 PM)
Minimum temperature yesterday: 54 °F (at 11:00 PM)
Average temperature yesterday: 62 °F

Past Weeks' High & Low Weather Summary

 TemperatureHumidityPressure
High84 °F (Aug 12, 3:00 PM)100% (Aug 6, 6:00 AM)30.21 "Hg (Aug 6, 6:00 AM)
Low43 °F (Aug 8, 5:50 AM)32% (Aug 11, 5:00 PM)29.69 "Hg (Aug 19, 12:00 AM)
Average64 °F76%29.96 "Hg
* Reported Aug 5 5:00 PM — Aug 20 5:00 PM, Camrose, Weather by CustomWeather, © 2014

Note: Actual official high and low records may vary slightly from our data, if they occured in-between our weather recording intervals... More about our weather records

Advertising

Camrose weather history for previous 24 hours

 ConditionsComfort  
Time TempWeatherWind HumidityBarometerVisibility
5:00 PM
Aug 20
66 °FScattered clouds.12 mph46%29.96 "Hg15 mi
4:00 PM66 °FBroken clouds.12 mph49%29.95 "Hg15 mi
3:00 PM64 °FPartly sunny.14 mph46%29.94 "Hg15 mi
2:00 PM64 °FBroken clouds.15 mph46%29.94 "Hg15 mi
1:00 PM61 °FBroken clouds.13 mph63%29.94 "Hg15 mi
12:00 PM61 °FBroken clouds.13 mph72%29.93 "Hg15 mi
11:00 AM57 °FBroken clouds.9 mph82%29.92 "Hg15 mi
10:00 AM55 °FSprinkles. Partly sunny.9 mph88%29.90 "Hg15 mi
9:47 AM55 °FSprinkles. Partly sunny.7 mph88%29.89 "Hg15 mi
9:00 AM54 °FPartly sunny.8 mph94%29.89 "Hg15 mi
8:55 AM54 °FPartly sunny.8 mph94%29.88 "Hg15 mi
8:00 AM52 °FSprinkles. Mostly cloudy.8 mph94%29.88 "Hg15 mi
7:00 AM52 °FSprinkles. Passing clouds.6 mph88%29.85 "Hg15 mi
6:57 AM52 °FSprinkles. Passing clouds.5 mph88%29.85 "Hg15 mi
6:00 AM52 °FPartly cloudy.6 mph88%29.83 "Hg15 mi
5:00 AM50 °FPartly cloudy.2 mph94%29.81 "Hg15 mi
4:00 AM54 °FPartly cloudy.6 mph88%29.80 "Hg15 mi
3:00 AM55 °FOvercast.9 mph88%29.78 "Hg15 mi
2:00 AM54 °FPartly cloudy.6 mph94%29.76 "Hg15 mi
1:00 AM50 °FPartly cloudy.3 mph94%29.76 "Hg15 mi
12:00 AM52 °FPartly cloudy.3 mph94%29.74 "Hg15 mi
11:00 PM
Aug 19
54 °FPartly cloudy.6 mph88%29.74 "Hg15 mi
10:00 PM55 °FPartly cloudy.7 mph88%29.73 "Hg15 mi
9:00 PM59 °FPartly sunny.5 mph82%29.72 "Hg15 mi
8:00 PM63 °FBroken clouds.5 mph73%29.72 "Hg15 mi
7:00 PM66 °FPartly sunny.2 mph60%29.70 "Hg15 mi
6:00 PM66 °FBroken clouds.5 mph52%29.70 "Hg15 mi
Weather by CustomWeather, © 2014

See weather overviewHow to use our weather pages